Date String (YYYY-MM-DD hh:mm:ss) UTC,Instrument flags,absolute air pressure of the measurement (hPa),sample flow rate (lpm),inlet stack bypass flow (lpm),air temperature of the measurement (°C),ambient temperature measured by the external sensor (°C),aerosol sample conditioner tube jacket temperature (°C),OPC LED temperature (°C),internal box temperature (°C),relative humidity of the measurement (%),span deviation,mass concentration of particles derived from Lorenz-Mie calculation of OPC scattering (μg/m³),mass concentration of particles derived from Lorenz-Mie calculation of OPC scattering (μg/m³),mass concentration of particles derived from Lorenz-Mie calculation of OPC scattering (μg/m³)
DateTimeUTC,F1_M11,P_M11,Q1_M11,Q2_M11,T1_M11,T2_M11,T3_M11,T4_M11,T5_M11,U1_M11,ZSPAN_M11,X2_M11,X0_M11,X1_M11
2024-05-09 06:00:00,SystemResetWarning,0826.6,4.99,000.00,024.9,024.1,000.0,033.1,026.6,009.8,0000.0,0000.53,0001.09,0000.33
2024-05-09 06:01:00,SystemResetWarning,0826.7,5.00,000.00,024.9,024.1,000.0,033.1,026.6,009.8,0000.0,0000.54,0001.09,0000.33
2024-05-09 06:02:00,SystemResetWarning,0826.6,5.00,000.00,024.9,024.2,000.0,033.1,026.6,009.8,0000.0,0000.54,0001.12,0000.33
2024-05-09 06:03:00,SystemResetWarning,0826.6,5.02,000.00,024.9,024.2,000.0,033.1,026.6,009.8,0000.0,0000.53,0001.07,0000.33
2024-05-09 06:04:00,SystemResetWarning,0826.7,4.99,000.00,024.9,024.2,000.0,033.1,026.6,009.8,0000.0,0000.53,0001.06,0000.33
2024-05-09 06:05:00,SystemResetWarning,0826.7,4.99,000.00,024.9,024.2,000.0,033.1,026.6,009.8,0000.0,0000.56,0001.12,0000.33
2024-05-09 06:06:00,SystemResetWarning,0826.7,5.01,000.00,024.9,024.2,000.0,033.1,026.6,009.9,0000.0,0000.56,0001.14,0000.33
2024-05-09 06:07:00,SystemResetWarning,0826.7,5.01,000.00,024.9,024.2,000.0,033.1,026.6,009.9,0000.0,0000.54,0001.08,0000.33
2024-05-09 06:08:00,SystemResetWarning,0826.7,5.00,000.00,024.9,024.2,000.0,033.1,026.6,009.8,0000.0,0000.54,0001.05,0000.34
2024-05-09 06:09:00,SystemResetWarning,0826.6,4.99,000.00,024.9,024.2,000.0,033.1,026.6,009.8,0000.0,0000.52,0001.07,0000.34
2024-05-09 06:10:00,SystemResetWarning,0826.6,4.99,000.00,024.9,024.2,000.0,033.1,026.6,009.9,0000.0,0000.51,0001.03,0000.34
2024-05-09 06:11:00,SystemResetWarning,0826.6,5.01,000.00,024.9,024.1,000.0,033.1,026.6,009.9,0000.0,0000.51,0001.02,0000.34
2024-05-09 06:12:00,SystemResetWarning,0826.6,5.01,000.00,024.9,024.1,000.0,033.1,026.6,009.9,0000.0,0000.50,0001.01,0000.34
2024-05-09 06:13:00,SystemResetWarning,0826.6,5.00,000.00,024.9,024.1,000.0,033.1,026.6,009.9,0000.0,0000.51,0000.98,0000.34
2024-05-09 06:14:00,SystemResetWarning,0826.6,5.00,000.00,024.9,024.1,000.0,033.1,026.6,009.9,0000.0,0000.50,0000.95,0000.34
2024-05-09 06:15:00,SystemResetWarning,0826.6,4.99,000.00,024.9,024.1,000.0,033.1,026.6,009.9,0000.0,0000.52,0001.00,0000.34
2024-05-09 06:16:00,SystemResetWarning,0826.6,4.99,000.00,024.9,024.1,000.0,033.1,026.6,009.9,0000.0,0000.51,0001.00,0000.34
2024-05-09 06:17:00,SystemResetWarning,0826.6,5.02,000.00,024.9,024.1,000.0,033.1,026.6,009.9,0000.0,0000.50,0000.98,0000.33
2024-05-09 06:18:00,SystemResetWarning,0826.6,5.01,000.00,024.9,024.1,000.0,033.1,026.6,010.0,0000.0,0000.50,0001.04,0000.33
2024-05-09 06:19:00,SystemResetWarning,0826.6,4.99,000.00,024.9,024.1,000.0,033.1,026.6,009.9,0000.0,0000.51,0001.10,0000.33
2024-05-09 06:20:00,SystemResetWarning,0826.6,5.00,000.00,024.9,024.1,000.0,033.1,026.6,009.9,0000.0,0000.50,0000.97,0000.32
2024-05-09 06:21:00,SystemResetWarning,0826.6,4.99,000.00,024.9,024.1,000.0,033.1,026.6,010.0,0000.0,0000.50,0000.93,0000.32
2024-05-09 06:22:00,SystemResetWarning,0826.6,5.01,000.00,024.9,024.1,000.0,033.1,026.6,009.9,0000.0,0000.53,0001.00,0000.32
2024-05-09 06:23:00,SystemResetWarning,0826.6,5.01,000.00,024.9,024.1,000.0,033.1,026.6,010.0,0000.0,0000.54,0001.04,0000.32
2024-05-09 06:24:00,SystemResetWarning,0826.7,5.00,000.00,024.9,024.1,000.0,033.1,026.6,010.0,0000.0,0000.57,0001.12,0000.32
2024-05-09 06:25:00,SystemResetWarning,0826.8,5.00,000.00,024.9,024.1,000.0,033.1,026.6,010.0,0000.0,0000.57,0001.12,0000.32
2024-05-09 06:26:00,SystemResetWarning,0826.8,5.00,000.00,024.9,024.1,000.0,033.1,026.6,010.1,0000.0,0000.55,0001.08,0000.32
2024-05-09 06:27:00,SystemResetWarning,0826.8,5.00,000.00,024.9,024.1,000.0,033.1,026.5,010.1,0000.0,0000.55,0001.04,0000.32
2024-05-09 06:28:00,SystemResetWarning,0826.8,5.00,000.00,024.8,024.1,000.0,033.1,026.5,010.1,0000.0,0000.58,0001.14,0000.33
2024-05-09 06:29:00,SystemResetWarning,0826.8,5.00,000.00,024.8,024.1,000.0,033.1,026.5,010.1,0000.0,0000.57,0001.07,0000.32
2024-05-09 06:30:00,SystemResetWarning,0826.8,5.00,000.00,024.8,024.1,000.0,033.1,026.6,010.1,0000.0,0000.56,0001.04,0000.32
2024-05-09 06:31:00,SystemResetWarning,0826.7,5.00,000.00,024.8,024.1,000.0,033.1,026.6,010.1,0000.0,0000.56,0001.03,0000.31
2024-05-09 06:32:00,SystemResetWarning,0826.8,5.00,000.00,024.8,024.1,000.0,033.1,026.6,010.1,0000.0,0000.55,0001.02,0000.31
2024-05-09 06:33:00,SystemResetWarning,0826.7,5.00,000.00,024.8,024.1,000.0,033.1,026.5,010.1,0000.0,0000.55,0001.04,0000.31
2024-05-09 06:34:00,SystemResetWarning,0826.8,5.00,000.00,024.8,024.1,000.0,033.1,026.5,010.2,0000.0,0000.53,0001.00,0000.31
2024-05-09 06:35:00,SystemResetWarning,0826.8,5.00,000.00,024.8,024.1,000.0,033.1,026.6,010.1,0000.0,0000.51,0000.97,0000.30
2024-05-09 06:36:00,SystemResetWarning,0826.8,5.00,000.00,024.8,024.1,000.0,033.1,026.6,010.1,0000.0,0000.51,0001.00,0000.31
2024-05-09 06:37:00,SystemResetWarning,0826.8,5.00,000.00,024.8,024.1,000.0,033.1,026.5,010.1,0000.0,0000.51,0001.11,0000.30
2024-05-09 06:38:00,SystemResetWarning,0826.8,5.01,000.00,024.8,024.1,000.0,033.1,026.5,010.2,0000.0,0000.49,0001.09,0000.29
2024-05-09 06:39:00,SystemResetWarning,0826.8,5.00,000.00,024.8,024.1,000.0,033.0,026.5,010.2,0000.0,0000.45,0000.97,0000.29
2024-05-09 06:40:00,SystemResetWarning,0826.7,5.00,000.00,024.8,024.1,000.0,033.0,026.5,010.2,0000.0,0000.46,0000.97,0000.29
2024-05-09 06:41:00,SystemResetWarning,0826.8,5.00,000.00,024.8,024.1,000.0,033.1,026.5,010.2,0000.0,0000.48,0001.01,0000.29
2024-05-09 06:42:00,SystemResetWarning,0826.8,4.99,000.00,024.8,024.1,000.0,033.0,026.5,010.1,0000.0,0000.49,0001.21,0000.29
2024-05-09 06:43:00,SystemResetWarning,0826.8,5.00,000.00,024.8,024.1,000.0,033.0,026.5,010.2,0000.0,0000.50,0001.44,0000.28
2024-05-09 06:44:00,SystemResetWarning,0826.8,5.00,000.00,024.8,024.1,000.0,033.0,026.5,010.2,0000.0,0000.47,0001.36,0000.28
2024-05-09 06:45:00,SystemResetWarning,0826.8,5.00,000.00,024.8,024.1,000.0,033.0,026.5,010.2,0000.0,0000.47,0001.35,0000.28
2024-05-09 06:46:00,SystemResetWarning,0826.8,5.00,000.00,024.8,024.1,000.0,033.0,026.5,010.2,0000.0,0000.48,0001.34,0000.28
2024-05-09 06:47:00,SystemResetWarning,0826.8,4.99,000.00,024.8,024.1,000.0,033.0,026.5,010.2,0000.0,0000.50,0001.43,0000.28
2024-05-09 06:48:00,SystemResetWarning,0826.8,4.99,000.00,024.8,024.1,000.0,033.0,026.5,010.2,0000.0,0000.49,0001.31,0000.28
2024-05-09 06:49:00,SystemResetWarning,0826.7,4.99,000.00,024.8,024.1,000.0,033.0,026.5,010.2,0000.0,0000.49,0001.31,0000.28
2024-05-09 06:50:00,SystemResetWarning,0826.8,4.99,000.00,024.8,024.1,000.0,033.0,026.5,010.2,0000.0,0000.49,0001.39,0000.28
2024-05-09 06:51:00,SystemResetWarning,0826.8,5.00,000.00,024.8,024.1,000.0,033.0,026.5,010.2,0000.0,0000.52,0001.45,0000.28
2024-05-09 06:52:00,SystemResetWarning,0826.8,5.01,000.00,024.8,024.1,000.0,033.0,026.5,010.2,0000.0,0000.50,0001.48,0000.28
2024-05-09 06:53:00,SystemResetWarning,0826.8,5.01,000.00,024.8,024.1,000.0,033.0,026.5,010.2,0000.0,0000.50,0001.37,0000.29
2024-05-09 06:54:00,SystemResetWarning,0826.8,5.00,000.00,024.8,024.1,000.0,033.0,026.5,010.3,0000.0,0000.51,0001.10,0000.30
2024-05-09 06:55:00,SystemResetWarning,0826.8,4.99,000.00,024.8,024.1,000.0,033.0,026.5,010.4,0000.0,0000.50,0001.10,0000.30
2024-05-09 06:56:00,SystemResetWarning,0826.8,4.99,000.00,024.8,024.1,000.0,033.1,026.6,010.5,0000.0,0000.50,0001.10,0000.30
2024-05-09 06:57:00,SystemResetWarning,0826.8,5.01,000.00,024.8,024.2,000.0,033.1,026.6,010.6,0000.0,0000.50,0001.12,0000.30
2024-05-09 06:58:00,SystemResetWarning,0826.8,5.01,000.00,024.8,024.2,000.0,033.1,026.6,010.7,0000.0,0000.48,0001.01,0000.31
2024-05-09 06:59:00,SystemResetWarning,0826.8,5.00,000.00,024.8,024.2,000.0,033.1,026.6,010.6,0000.0,0000.49,0001.06,0000.31
